Project,Study,Ord_Occ,Event_Num,Cast_ID,Date_Time_UTC,Date_Time_PST,Lat_Dec,Lon_Dec,Sta_ID,Line,Sta,Depth,Pressure,PrQ,Temp1,Temp1Q,Temp2,Temp2Q,TempAve,Salt1,Salt1Q,Salt1_Corr,Salt2,Salt2Q,Salt2_Corr,SaltAve_Corr,Ox1,Ox1Q,Ox1_CruiseCorr,Ox1_StaCorr,Ox2,Ox2Q,Ox2_CruiseCorr,Ox2_StaCorr,OxAve_StaCorr,Ox1uM,Ox1uM_CruiseCorr,Ox1uM_StaCorr,Ox2uM,Ox2uM_CruiseCorr,Ox2uM_StaCorr,OxAveuM_StaCorr,FluorV,FluorQ,EstChl_CruiseCorr,EstChl_StaCorr,ISUSV,ISUSQ,EstNO3_CruiseCorr,EstNO3_StaCorr,SigThetaTS1,SigThetaTS1Q,SigThetaTS2,SigThetaTS2Q,BAT,XMiss,TransQ,pH,pHQ,SPAR,SPARQ,PAR,PARQ,PoT1,PoT2,DynHt,SVA,OxSat1,OxSat2,BTL_Depth,BTL_Temp,SaltB,OxB,OxBuM,Chl-a,Phaeo,NO3,NO2,NH4,PO4,SIL
CalCOFI,2101RL,068,,2101_068u,01-Feb-2021 21:23:15,01-Feb-2021 13:23:15,34.05764,-122.93902,076.7 080.0,076.7,080.0,517.000,521.374,,5.4795,,5.4799,,5.4797,34.1739,,34.1797,34.1721,,34.1741,34.1769,0.5122,,0.5360,0.5639,0.4998,,0.5288,0.5598,0.5619,22.273,23.5756,40.5197,21.734,25.2203,40.2304,40.3751,0.0323,,,, ,, , ,26.9692,,26.9677,,0.7222,83.4812,,,,9.5486E+02,,1.0000E-12,,5.4362,5.4366,0.9059,114.328,7.283,7.107,,,,,,,,,,,,
CalCOFI,2101RL,068,,2101_068u,01-Feb-2021 21:23:17,01-Feb-2021 13:23:17,34.05764,-122.93901,076.7 080.0,076.7,080.0,516.000,520.364,,5.4878,,5.4895,,5.4887,34.1712,,34.1770,34.1692,,34.1712,34.1741,0.5051,,0.5285,0.5566,0.5087,,0.5383,0.5692,0.5629,21.966,23.2542,40.2880,22.123,24.8789,40.5306,40.4093,0.0317,,,, ,, , ,26.9661,,26.9642,,0.7214,83.4974,,,,9.5568E+02,,1.0000E-12,,5.4446,5.4463,0.9059,114.619,7.184,7.236,,,,,,,,,,,,
CalCOFI,2101RL,068,,2101_068u,01-Feb-2021 21:23:18,01-Feb-2021 13:23:18,34.05764,-122.93900,076.7 080.0,076.7,080.0,515.000,519.354,,5.4890,,5.4896,,5.4893,34.1708,,34.1766,34.1691,,34.1711,34.1739,0.5107,,0.5344,0.5624,0.5084,,0.5380,0.5689,0.5657,22.210,23.5096,40.4722,22.108,25.1503,40.5191,40.4957,0.0317,,,, ,, , ,26.9656,,26.9642,,0.7224,83.4766,,,,9.5677E+02,,1.0000E-12,,5.4459,5.4465,0.9059,114.652,7.264,7.231,515,,34.1606,0.561,24.48,,,,,,,
CalCOFI,2101RL,068,,2101_068u,01-Feb-2021 21:23:19,01-Feb-2021 13:23:19,34.05764,-122.93900,076.7 080.0,076.7,080.0,514.000,518.345,,5.4889,,5.4892,,5.4891,34.1710,,34.1768,34.1692,,34.1712,34.1740,0.5129,,0.5367,0.5647,0.5058,,0.5352,0.5661,0.5654,22.304,23.6080,40.5431,21.996,25.2548,40.4326,40.4879,0.0332,,,, ,, , ,26.9657,,26.9643,,0.7219,83.4869,,,,9.5502E+02,,1.0000E-12,,5.4459,5.4462,0.9059,114.629,7.295,7.194,,,,,,,,,,,,
CalCOFI,2101RL,068,,2101_068u,01-Feb-2021 21:23:39,01-Feb-2021 13:23:39,34.05769,-122.93893,076.7 080.0,076.7,080.0,513.000,517.335,,5.4898,,5.4899,,5.4899,34.1706,,34.1764,34.1690,,34.1710,34.1737,0.5099,,0.5336,0.5616,0.5040,,0.5333,0.5642,0.5629,22.172,23.4698,40.4435,21.918,25.1080,40.3724,40.4080,0.0323,,,, ,, , ,26.9653,,26.9640,,0.7220,83.4843,,,,9.6029E+02,,1.0000E-12,,5.4469,5.4470,0.9093,114.658,7.252,7.169,,,,,,,,,,,,
CalCOFI,2101RL,068,,2101_068u,01-Feb-2021 21:23:59,01-Feb-2021 13:23:59,34.05772,-122.93888,076.7 080.0,076.7,080.0,512.000,516.325,,5.4904,,5.4902,,5.4903,34.1704,,34.1762,34.1689,,34.1709,34.1736,0.5195,,0.5436,0.5715,0.5088,,0.5384,0.5693,0.5704,22.592,23.9095,40.7605,22.126,25.5751,40.5330,40.6468,0.0331,,,, ,, , ,26.9651,,26.9639,,0.7223,83.4778,,,,9.7192E+02,,1.0000E-12,,5.4475,5.4474,0.9129,114.665,7.389,7.237,,,,,,,,,,,,
CalCOFI,2101RL,068,,2101_068u,01-Feb-2021 21:23:59,01-Feb-2021 13:23:59,34.05772,-122.93888,076.7 080.0,076.7,080.0,511.000,515.315,,5.4912,,5.4909,,5.4911,34.1701,,34.1759,34.1687,,34.1707,34.1733,0.5200,,0.5441,0.5720,0.5100,,0.5397,0.5706,0.5713,22.613,23.9315,40.7764,22.177,25.5984,40.5723,40.6744,0.0323,,,, ,, , ,26.9647,,26.9636,,0.7222,83.4805,,,,9.7172E+02,,1.0000E-12,,5.4484,5.4482,0.9128,114.687,7.396,7.254,,,,,,,,,,,,
CalCOFI,2101RL,068,,2101_068u,01-Feb-2021 21:24:00,01-Feb-2021 13:24:00,34.05772,-122.93888,076.7 080.0,076.7,080.0,510.000,514.306,,5.4926,,5.4937,,5.4932,34.1698,,34.1756,34.1677,,34.1697,34.1727,0.5263,,0.5507,0.5785,0.5147,,0.5447,0.5755,0.5770,22.886,24.2173,40.9824,22.383,25.9020,40.7313,40.8569,0.0327,,,, ,, , ,26.9643,,26.9625,,0.7222,83.4813,,,,9.7172E+02,,1.0000E-12,,5.4499,5.4510,0.9128,114.716,7.486,7.321,,,,,,,,,,,,
CalCOFI,2101RL,068,,2101_068u,01-Feb-2021 21:24:01,01-Feb-2021 13:24:01,34.05772,-122.93888,076.7 080.0,076.7,080.0,509.000,513.296,,5.5018,,5.4981,,5.5000,34.1676,,34.1734,34.1667,,34.1687,34.1711,0.5323,,0.5570,0.5847,0.5238,,0.5543,0.5851,0.5849,23.148,24.4915,41.1802,22.780,26.1933,41.0378,41.1090,0.0319,,,, ,, , ,26.9615,,26.9612,,0.7222,83.4811,,,,9.7347E+02,,1.0000E-12,,5.4592,5.4555,0.9128,114.979,7.573,7.452,,,,,,,,,,,,
CalCOFI,2101RL,068,,2101_068u,01-Feb-2021 21:24:02,01-Feb-2021 13:24:02,34.05772,-122.93888,076.7 080.0,076.7,080.0,508.000,512.286,,5.5084,,5.5048,,5.5066,34.1662,,34.1720,34.1653,,34.1673,34.1697,0.5353,,0.5601,0.5878,0.5245,,0.5551,0.5859,0.5869,23.277,24.6266,41.2775,22.808,26.3368,41.0594,41.1685,0.0329,,,, ,, , ,26.9595,,26.9593,,0.7219,83.4873,,,,9.7493E+02,,1.0000E-12,,5.4658,5.4622,0.9128,115.158,7.616,7.462,,,,,,,,,,,,
CalCOFI,2101RL,068,,2101_068u,01-Feb-2021 21:24:03,01-Feb-2021 13:24:03,34.05774,-122.93886,076.7 080.0,076.7,080.0,507.000,511.277,,5.5123,,5.5096,,5.5110,34.1653,,34.1711,34.1642,,34.1662,34.1687,0.5360,,0.5609,0.5885,0.5245,,0.5551,0.5859,0.5872,23.309,24.6601,41.3017,22.811,26.3724,41.0617,41.1817,0.0320,,,, ,, , ,26.9583,,26.9578,,0.7223,83.4785,,,,9.7830E+02,,1.0000E-12,,5.4698,5.4671,0.9128,115.262,7.627,7.464,,,,,,,,,,,,
CalCOFI,2101RL,068,,2101_068u,01-Feb-2021 21:24:04,01-Feb-2021 13:24:04,34.05774,-122.93886,076.7 080.0,076.7,080.0,506.000,510.267,,5.5141,,5.5122,,5.5132,34.1648,,34.1706,34.1634,,34.1654,34.1680,0.5410,,0.5661,0.5937,0.5344,,0.5656,0.5963,0.5950,23.527,24.8883,41.4662,23.239,26.6148,41.3921,41.4292,0.0328,,,, ,, , ,26.9578,,26.9568,,0.7222,83.4800,,,,9.7939E+02,,1.0000E-12,,5.4717,5.4698,0.9128,115.305,7.699,7.605,,,,,,,,,,,,
CalCOFI,2101RL,068,,2101_068u,01-Feb-2021 21:24:05,01-Feb-2021 13:24:05,34.05774,-122.93886,076.7 080.0,076.7,080.0,505.000,509.257,,5.5178,,5.5160,,5.5169,34.1638,,34.1696,34.1626,,34.1646,34.1671,0.5430,,0.5682,0.5958,0.5350,,0.5662,0.5970,0.5964,23.616,24.9814,41.5334,23.267,26.7138,41.4137,41.4736,0.0329,,,, ,, , ,26.9565,,26.9558,,0.7215,83.4968,,,,9.8175E+02,,1.0000E-12,,5.4755,5.4736,0.9128,115.418,7.729,7.614,,,,,,,,,,,,
CalCOFI,2101RL,068,,2101_068u,01-Feb-2021 21:24:06,01-Feb-2021 13:24:06,34.05774,-122.93885,076.7 080.0,076.7,080.0,504.000,508.248,,5.5200,,5.5185,,5.5193,34.1633,,34.1691,34.1619,,34.1639,34.1665,0.5423,,0.5675,0.5951,0.5273,,0.5580,0.5888,0.5920,23.583,24.9469,41.5085,22.933,26.6771,41.1559,41.3322,0.0323,,,, ,, , ,26.9558,,26.9549,,0.7224,83.4769,,,,9.8279E+02,,1.0000E-12,,5.4777,5.4762,0.9128,115.469,7.718,7.506,,,,,,,,,,,,
CalCOFI,2101RL,068,,2101_068u,01-Feb-2021 21:24:07,01-Feb-2021 13:24:07,34.05774,-122.93884,076.7 080.0,076.7,080.0,503.000,507.238,,5.5207,,5.5182,,5.5195,34.1630,,34.1688,34.1620,,34.1640,34.1664,0.5442,,0.5695,0.5970,0.5348,,0.5660,0.5967,0.5969,23.667,25.0348,41.5719,23.257,26.7705,41.4060,41.4890,0.0330,,,, ,, , ,26.9555,,26.9550,,0.7220,83.4849,,,,9.8395E+02,,1.0000E-12,,5.4785,5.4760,0.9128,115.487,7.746,7.611,,,,,,,,,,,,
CalCOFI,2101RL,068,,2101_068u,01-Feb-2021 21:24:08,01-Feb-2021 13:24:08,34.05774,-122.93884,076.7 080.0,076.7,080.0,502.000,506.228,,5.5207,,5.5190,,5.5199,34.1631,,34.1689,34.1618,,34.1638,34.1664,0.5523,,0.5779,0.6054,0.5394,,0.5709,0.6016,0.6035,24.017,25.4012,41.8361,23.459,27.1597,41.5619,41.6990,0.0323,,,, ,, , ,26.9555,,26.9547,,0.7213,83.4998,,,,9.8464E+02,,1.0000E-12,,5.4786,5.4769,0.9128,115.471,7.861,7.678,,,,,,,,,,,,
CalCOFI,2101RL,068,,2101_068u,01-Feb-2021 21:24:09,01-Feb-2021 13:24:09,34.05774,-122.93884,076.7 080.0,076.7,080.0,501.000,505.219,,5.5210,,5.5201,,5.5206,34.1628,,34.1686,34.1613,,34.1633,34.1660,0.5548,,0.5806,0.6080,0.5442,,0.5760,0.6067,0.6074,24.128,25.5174,41.9199,23.667,27.2831,41.7225,41.8212,0.0321,,,, ,, , ,26.9553,,26.9542,,0.7215,83.4960,,,,9.8481E+02,,1.0000E-12,,5.4790,5.4781,0.9128,115.484,7.897,7.746,,,,,,,,,,,,
CalCOFI,2101RL,068,,2101_068u,01-Feb-2021 21:24:10,01-Feb-2021 13:24:10,34.05774,-122.93884,076.7 080.0,076.7,080.0,500.000,504.209,,5.5239,,5.5225,,5.5232,34.1615,,34.1673,34.1605,,34.1625,34.1649,0.5548,,0.5806,0.6080,0.5460,,0.5779,0.6086,0.6083,24.127,25.5163,41.9191,23.746,27.2820,41.7835,41.8513,0.0329,,,, ,, , ,26.9539,,26.9532,,0.7213,83.5001,,,,9.8737E+02,,1.0000E-12,,5.4819,5.4806,0.9128,115.607,7.897,7.772,,,,,,,,,,,,
CalCOFI,2101RL,068,,2101_068u,01-Feb-2021 21:24:11,01-Feb-2021 13:24:11,34.05774,-122.93884,076.7 080.0,076.7,080.0,499.000,503.199,,5.5245,,5.5260,,5.5253,34.1612,,34.1670,34.1591,,34.1611,34.1641,0.5615,,0.5876,0.6149,0.5568,,0.5894,0.6200,0.6175,24.418,25.8210,42.1388,24.215,27.6056,42.1455,42.1422,0.0323,,,, ,, , ,26.9535,,26.9517,,0.7215,83.4951,,,,9.8907E+02,,1.0000E-12,,5.4827,5.4841,0.9128,115.625,7.992,7.926,,,,,,,,,,,,
CalCOFI,2101RL,068,,2101_068u,01-Feb-2021 21:24:13,01-Feb-2021 13:24:13,34.05775,-122.93884,076.7 080.0,076.7,080.0,498.000,502.190,,5.5259,,5.5293,,5.5276,34.1609,,34.1667,34.1583,,34.1603,34.1635,0.5796,,0.6065,0.6336,0.5574,,0.5900,0.6206,0.6271,25.206,26.6458,42.7336,24.241,28.4819,42.1656,42.4496,0.0330,,,, ,, , ,26.9532,,26.9507,,0.7216,83.4936,,,,9.9356E+02,,1.0000E-12,,5.4841,5.4875,0.9128,115.648,8.251,7.935,,,,,,,,,,,,
CalCOFI,2101RL,068,,2101_068u,01-Feb-2021 21:24:14,01-Feb-2021 13:24:14,34.05776,-122.93884,076.7 080.0,076.7,080.0,497.000,501.180,,5.5358,,5.5371,,5.5365,34.1580,,34.1638,34.1560,,34.1580,34.1609,0.5934,,0.6210,0.6479,0.5741,,0.6078,0.6382,0.6431,25.806,27.2739,43.1864,24.966,29.1491,42.7252,42.9558,0.0319,,,, ,, , ,26.9496,,26.9479,,0.7213,83.4993,,,,9.9666E+02,,1.0000E-12,,5.4941,5.4954,0.9128,115.981,8.449,8.174,,,,,,,,,,,,
CalCOFI,2101RL,068,,2101_068u,01-Feb-2021 21:24:15,01-Feb-2021 13:24:15,34.05776,-122.93884,076.7 080.0,076.7,080.0,496.000,500.171,,5.5442,,5.5407,,5.5425,34.1548,,34.1606,34.1550,,34.1570,34.1588,0.6022,,0.6302,0.6570,0.5773,,0.6112,0.6416,0.6493,26.187,27.6728,43.4740,25.105,29.5728,42.8325,43.1533,0.0325,,,, ,, , ,26.9461,,26.9466,,0.7217,83.4911,,,,9.9946E+02,,1.0000E-12,,5.5025,5.4990,0.9128,116.306,8.575,8.220,,,,,,,,,,,,
CalCOFI,2101RL,068,,2101_068u,01-Feb-2021 21:24:16,01-Feb-2021 13:24:16,34.05776,-122.93885,076.7 080.0,076.7,080.0,495.000,499.161,,5.5487,,5.5438,,5.5463,34.1529,,34.1587,34.1531,,34.1551,34.1569,0.6048,,0.6329,0.6597,0.5819,,0.6160,0.6465,0.6531,26.302,27.7931,43.5608,25.305,29.7006,42.9869,43.2739,0.0317,,,, ,, , ,26.9441,,26.9448,,0.7216,83.4939,,,,9.9943E+02,,1.0000E-12,,5.5071,5.5023,0.9128,116.494,8.613,8.286,,,,,,,,,,,,
CalCOFI,2101RL,068,,2101_068u,01-Feb-2021 21:24:16,01-Feb-2021 13:24:16,34.05776,-122.93888,076.7 080.0,076.7,080.0,494.000,498.151,,5.5585,,5.5486,,5.5536,34.1514,,34.1572,34.1524,,34.1544,34.1558,0.6071,,0.6353,0.6621,0.5916,,0.6263,0.6567,0.6594,26.400,27.8957,43.6348,25.726,29.8096,43.3119,43.4734,0.0315,,,, ,, , ,26.9417,,26.9436,,0.7213,83.5000,,,,1.0005E+03,,1.0000E-12,,5.5169,5.5071,0.9128,116.715,8.648,8.425,,,,,,,,,,,,
CalCOFI,2101RL,068,,2101_068u,01-Feb-2021 21:24:17,01-Feb-2021 13:24:17,34.05776,-122.93888,076.7 080.0,076.7,080.0,493.000,497.142,,5.5723,,5.5666,,5.5695,34.1512,,34.1570,34.1495,,34.1515,34.1543,0.6059,,0.6340,0.6609,0.5983,,0.6335,0.6638,0.6624,26.348,27.8413,43.5955,26.019,29.7518,43.5380,43.5668,0.0326,,,, ,, , ,26.9398,,26.9392,,0.7221,83.4831,,,,1.0030E+03,,1.0000E-12,,5.5308,5.5251,0.9128,116.897,8.633,8.524,,,,,,,,,,,,
CalCOFI,2101RL,068,,2101_068u,01-Feb-2021 21:24:18,01-Feb-2021 13:24:18,34.05776,-122.93888,076.7 080.0,076.7,080.0,492.000,496.132,,5.5816,,5.5811,,5.5814,34.1498,,34.1556,34.1479,,34.1499,34.1528,0.6094,,0.6377,0.6645,0.6009,,0.6362,0.6665,0.6655,26.503,28.0035,43.7125,26.131,29.9242,43.6245,43.6685,0.0317,,,, ,, , ,26.9376,,26.9362,,0.7219,83.4870,,,,1.0049E+03,,1.0000E-12,,5.5401,5.5397,0.9128,117.099,8.686,8.564,,,,,,,,,,,,
CalCOFI,2101RL,068,,2101_068u,01-Feb-2021 21:24:19,01-Feb-2021 13:24:19,34.05776,-122.93888,076.7 080.0,076.7,080.0,491.000,495.122,,5.5867,,5.5832,,5.5850,34.1496,,34.1554,34.1480,,34.1500,34.1527,0.6140,,0.6425,0.6692,0.6031,,0.6386,0.6689,0.6691,26.702,28.2119,43.8627,26.226,30.1455,43.6978,43.7803,0.0330,,,, ,, , ,26.9368,,26.9360,,0.7223,83.4782,,,,1.0079E+03,,1.0000E-12,,5.5453,5.5419,0.9128,117.169,8.752,8.595,,,,,,,,,,,,
CalCOFI,2101RL,068,,2101_068u,01-Feb-2021 21:24:19,01-Feb-2021 13:24:19,34.05776,-122.93886,076.7 080.0,076.7,080.0,490.000,494.113,,5.5935,,5.5921,,5.5928,34.1497,,34.1555,34.1480,,34.1500,34.1528,0.6180,,0.6467,0.6734,0.6058,,0.6414,0.6717,0.6726,26.877,28.3950,43.9948,26.345,30.3401,43.7897,43.8923,0.0325,,,, ,, , ,26.9360,,26.9349,,0.7217,83.4917,,,,1.0099E+03,,1.0000E-12,,5.5522,5.5508,0.9128,117.239,8.811,8.636,,,,,,,,,,,,
CalCOFI,2101RL,068,,2101_068u,01-Feb-2021 21:24:20,01-Feb-2021 13:24:20,34.05776,-122.93884,076.7 080.0,076.7,080.0,489.000,493.103,,5.6014,,5.6010,,5.6012,34.1484,,34.1542,34.1471,,34.1491,34.1517,0.6201,,0.6489,0.6755,0.6041,,0.6396,0.6699,0.6727,26.968,28.4903,44.0635,26.272,30.4412,43.7333,43.8984,0.0323,,,, ,, , ,26.9341,,26.9331,,0.7223,83.4797,,,,1.0105E+03,,1.0000E-12,,5.5601,5.5597,0.9128,117.418,8.842,8.614,,,,,,,,,,,,
CalCOFI,2101RL,068,,2101_068u,01-Feb-2021 21:24:20,01-Feb-2021 13:24:20,34.05776,-122.93884,076.7 080.0,076.7,080.0,488.000,492.094,,5.6087,,5.6085,,5.6086,34.1467,,34.1525,34.1452,,34.1472,34.1499,0.6170,,0.6457,0.6723,0.6059,,0.6415,0.6718,0.6721,26.833,28.3490,43.9616,26.352,30.2911,43.7951,43.8784,0.0322,,,, ,, , ,26.9319,,26.9307,,0.7224,83.4766,,,,1.0105E+03,,1.0000E-12,,5.5675,5.5673,0.9128,117.622,8.799,8.641,,,,,,,,,,,,
CalCOFI,2101RL,068,,2101_068u,01-Feb-2021 21:24:21,01-Feb-2021 13:24:21,34.05776,-122.93884,076.7 080.0,076.7,080.0,487.000,491.084,,5.6110,,5.6085,,5.6098,34.1463,,34.1521,34.1451,,34.1471,34.1496,0.6167,,0.6453,0.6720,0.6092,,0.6450,0.6753,0.6737,26.818,28.3333,43.9503,26.495,30.2744,43.9055,43.9279,0.0319,,,, ,, , ,26.9312,,26.9306,,0.7221,83.4821,,,,1.0105E+03,,1.0000E-12,,5.5699,5.5674,0.9128,117.672,8.795,8.688,,,,,,,,,,,,
CalCOFI,2101RL,068,,2101_068u,01-Feb-2021 21:24:22,01-Feb-2021 13:24:22,34.05776,-122.93884,076.7 080.0,076.7,080.0,486.000,490.075,,5.6072,,5.6089,,5.6081,34.1468,,34.1526,34.1448,,34.1468,34.1497,0.6162,,0.6448,0.6715,0.6100,,0.6459,0.6761,0.6738,26.797,28.3113,43.9345,26.530,30.2511,43.9325,43.9335,0.0328,,,, ,, , ,26.9321,,26.9303,,0.7223,83.4793,,,,1.0105E+03,,1.0000E-12,,5.5662,5.5679,0.9128,117.576,8.787,8.700,,,,,,,,,,,,
CalCOFI,2101RL,068,,2101_068u,01-Feb-2021 21:24:24,01-Feb-2021 13:24:24,34.05778,-122.93884,076.7 080.0,076.7,080.0,485.000,489.065,,5.6016,,5.6087,,5.6052,34.1477,,34.1535,34.1446,,34.1466,34.1501,0.6171,,0.6458,0.6724,0.6131,,0.6492,0.6794,0.6759,26.839,28.3553,43.9662,26.665,30.2978,44.0367,44.0015,0.0323,,,, ,, , ,26.9334,,26.9301,,0.7221,83.4828,,,,1.0126E+03,,1.0000E-12,,5.5607,5.5677,0.9128,117.427,8.800,8.744,,,,,,,,,,,,
CalCOFI,2101RL,068,,2101_068u,01-Feb-2021 21:24:26,01-Feb-2021 13:24:26,34.05778,-122.93884,076.7 080.0,076.7,080.0,484.000,488.055,,5.6046,,5.6247,,5.6147,34.1468,,34.1526,34.1414,,34.1434,34.1480,0.6385,,0.6682,0.6946,0.6281,,0.6651,0.6953,0.6950,27.769,29.3288,44.6681,27.314,31.3320,44.5377,44.6029,0.0324,,,, ,, , ,26.9324,,26.9257,,0.7214,83.4980,,,,1.0177E+03,,1.0000E-12,,5.5638,5.5838,0.9128,117.516,9.105,8.960,,,,,,,,,,,,
CalCOFI,2101RL,068,,2101_068u,01-Feb-2021 21:24:27,01-Feb-2021 13:24:27,34.05778,-122.93884,076.7 080.0,076.7,080.0,483.000,487.046,,5.6179,,5.6304,,5.6242,34.1450,,34.1508,34.1415,,34.1435,34.1472,0.6448,,0.6747,0.7011,0.6280,,0.6650,0.6952,0.6982,28.042,29.6146,44.8742,27.310,31.6356,44.5346,44.7044,0.0314,,,, ,, , ,26.9294,,26.9250,,0.7223,83.4786,,,,1.0192E+03,,1.0000E-12,,5.5771,5.5895,0.9128,117.805,9.198,8.960,,,,,,,,,,,,
CalCOFI,2101RL,068,,2101_068u,01-Feb-2021 21:24:28,01-Feb-2021 13:24:28,34.05778,-122.93884,076.7 080.0,076.7,080.0,482.000,486.036,,5.6386,,5.6407,,5.6397,34.1415,,34.1473,34.1396,,34.1416,34.1445,0.6510,,0.6812,0.7075,0.6310,,0.6682,0.6983,0.7029,28.310,29.8951,45.0765,27.443,31.9336,44.6373,44.8569,0.0327,,,, ,, , ,26.9241,,26.9223,,0.7218,83.4893,,,,1.0200E+03,,1.0000E-12,,5.5978,5.5999,0.9128,118.312,9.290,9.006,,,,,,,,,,,,
CalCOFI,2101RL,068,,2101_068u,01-Feb-2021 21:24:29,01-Feb-2021 13:24:29,34.05779,-122.93883,076.7 080.0,076.7,080.0,481.000,485.027,,5.6469,,5.6456,,5.6463,34.1403,,34.1461,34.1389,,34.1409,34.1435,0.6548,,0.6852,0.7114,0.6418,,0.6797,0.7097,0.7106,28.477,30.0699,45.2025,27.912,32.1193,44.9993,45.1009,0.0321,,,, ,, , ,26.9221,,26.9211,,0.7216,83.4932,,,,1.0216E+03,,1.0000E-12,,5.6061,5.6049,0.9128,118.495,9.346,9.160,,,,,,,,,,,,
CalCOFI,2101RL,068,,2101_068u,01-Feb-2021 21:24:30,01-Feb-2021 13:24:30,34.05780,-122.93882,076.7 080.0,076.7,080.0,480.000,484.017,,5.6515,,5.6500,,5.6508,34.1400,,34.1458,34.1384,,34.1404,34.1431,0.6607,,0.6914,0.7175,0.6434,,0.6814,0.7114,0.7145,28.735,30.3400,45.3973,27.979,32.4062,45.0510,45.2242,0.0327,,,, ,, , ,26.9213,,26.9202,,0.7213,83.5003,,,,1.0240E+03,,1.0000E-12,,5.6108,5.6093,0.9128,118.567,9.432,9.184,,,,,,,,,,,,
CalCOFI,2101RL,068,,2101_068u,01-Feb-2021 21:24:31,01-Feb-2021 13:24:31,34.05780,-122.93882,076.7 080.0,076.7,080.0,479.000,483.008,,5.6580,,5.6571,,5.6576,34.1389,,34.1447,34.1372,,34.1392,34.1420,0.6620,,0.6927,0.7189,0.6496,,0.6879,0.7180,0.7185,28.791,30.3986,45.4395,28.249,32.4685,45.2594,45.3495,0.0338,,,, ,, , ,26.9196,,26.9183,,0.7213,83.5001,,,,1.0253E+03,,1.0000E-12,,5.6174,5.6165,0.9128,118.715,9.452,9.274,,,,,,,,,,,,
CalCOFI,2101RL,068,,2101_068u,01-Feb-2021 21:24:31,01-Feb-2021 13:24:31,34.05780,-122.93882,076.7 080.0,076.7,080.0,478.000,481.998,,5.6627,,5.6647,,5.6637,34.1381,,34.1439,34.1363,,34.1383,34.1411,0.6651,,0.6960,0.7221,0.6570,,0.6958,0.7258,0.7240,28.924,30.5378,45.5399,28.572,32.6164,45.5087,45.5243,0.0308,,,, ,, , ,26.9184,,26.9167,,0.7216,83.4937,,,,1.0253E+03,,1.0000E-12,,5.6222,5.6242,0.9128,118.823,9.496,9.381,,,,,,,,,,,,
CalCOFI,2101RL,068,,2101_068u,01-Feb-2021 21:24:32,01-Feb-2021 13:24:32,34.05780,-122.93882,076.7 080.0,076.7,080.0,477.000,480.989,,5.6663,,5.6679,,5.6671,34.1376,,34.1434,34.1361,,34.1381,34.1408,0.6666,,0.6976,0.7236,0.6549,,0.6936,0.7236,0.7236,28.989,30.6059,45.5890,28.481,32.6886,45.4385,45.5138,0.0324,,,, ,, , ,26.9176,,26.9162,,0.7221,83.4826,,,,1.0269E+03,,1.0000E-12,,5.6259,5.6275,0.9128,118.891,9.519,9.352,,,,,,,,,,,,
CalCOFI,2101RL,068,,2101_068u,01-Feb-2021 21:24:33,01-Feb-2021 13:24:33,34.05778,-122.93882,076.7 080.0,076.7,080.0,476.000,479.979,,5.6712,,5.6714,,5.6713,34.1373,,34.1431,34.1356,,34.1376,34.1404,0.6669,,0.6979,0.7240,0.6507,,0.6891,0.7191,0.7216,29.003,30.6205,45.5995,28.300,32.7042,45.2988,45.4492,0.0327,,,, ,, , ,26.9167,,26.9153,,0.7224,83.4766,,,,1.0271E+03,,1.0000E-12,,5.6309,5.6310,0.9128,118.968,9.524,9.293,,,,,,,,,,,,
CalCOFI,2101RL,068,,2101_068u,01-Feb-2021 21:24:33,01-Feb-2021 13:24:33,34.05778,-122.93882,076.7 080.0,076.7,080.0,475.000,478.969,,5.6759,,5.6743,,5.6751,34.1363,,34.1421,34.1349,,34.1369,34.1395,0.6669,,0.6979,0.7240,0.6545,,0.6931,0.7231,0.7236,29.004,30.6216,45.6003,28.466,32.7053,45.4269,45.5136,0.0326,,,, ,, , ,26.9153,,26.9144,,0.7220,83.4842,,,,1.0257E+03,,1.0000E-12,,5.6356,5.6340,0.9128,119.088,9.526,9.348,,,,,,,,,,,,
CalCOFI,2101RL,068,,2101_068u,01-Feb-2021 21:24:34,01-Feb-2021 13:24:34,34.05778,-122.93882,076.7 080.0,076.7,080.0,474.000,477.960,,5.6748,,5.6763,,5.6756,34.1364,,34.1422,34.1342,,34.1362,34.1392,0.6612,,0.6919,0.7181,0.6593,,0.6982,0.7282,0.7232,28.753,30.3588,45.4108,28.672,32.4262,45.5859,45.4984,0.0324,,,, ,, , ,26.9155,,26.9136,,0.7213,83.4998,,,,1.0256E+03,,1.0000E-12,,5.6346,5.6360,0.9128,119.054,9.443,9.416,,,,,,,,,,,,
CalCOFI,2101RL,068,,2101_068u,01-Feb-2021 21:24:35,01-Feb-2021 13:24:35,34.05778,-122.93882,076.7 080.0,076.7,080.0,473.000,476.951,,5.6717,,5.6718,,5.6718,34.1365,,34.1423,34.1354,,34.1374,34.1399,0.6646,,0.6955,0.7216,0.6552,,0.6939,0.7239,0.7228,28.902,30.5148,45.5233,28.493,32.5919,45.4478,45.4856,0.0324,,,, ,, , ,26.9160,,26.9151,,0.7218,83.4894,,,,1.0256E+03,,1.0000E-12,,5.6316,5.6316,0.9128,118.992,9.491,9.357,,,,,,,,,,,,
CalCOFI,2101RL,068,,2101_068u,01-Feb-2021 21:24:36,01-Feb-2021 13:24:36,34.05778,-122.93882,076.7 080.0,076.7,080.0,472.000,475.941,,5.6664,,5.6679,,5.6672,34.1376,,34.1434,34.1361,,34.1381,34.1408,0.6779,,0.7094,0.7353,0.6586,,0.6975,0.7275,0.7314,29.480,31.1199,45.9596,28.641,33.2346,45.5620,45.7608,0.0322,,,, ,, , ,26.9175,,26.9161,,0.7213,83.5001,,,,1.0271E+03,,1.0000E-12,,5.6264,5.6279,0.9128,118.833,9.680,9.405,,,,,,,,,,,,
CalCOFI,2101RL,068,,2101_068u,01-Feb-2021 21:24:37,01-Feb-2021 13:24:37,34.05778,-122.93882,076.7 080.0,076.7,080.0,471.000,474.931,,5.6749,,5.6710,,5.6730,34.1364,,34.1422,34.1354,,34.1374,34.1398,0.6885,,0.7205,0.7463,0.6762,,0.7162,0.7460,0.7462,29.943,31.6045,46.3091,29.408,33.7495,46.1541,46.2316,0.0328,,,, ,, , ,26.9155,,26.9152,,0.7213,83.5001,,,,1.0271E+03,,1.0000E-12,,5.6350,5.6311,0.9128,119.021,9.834,9.657,,,,,,,,,,,,
CalCOFI,2101RL,068,,2101_068u,01-Feb-2021 21:24:38,01-Feb-2021 13:24:38,34.05778,-122.93882,076.7 080.0,076.7,080.0,470.000,473.922,,5.6904,,5.6962,,5.6933,34.1338,,34.1396,34.1313,,34.1333,34.1365,0.6978,,0.7302,0.7559,0.6774,,0.7175,0.7473,0.7516,30.347,32.0274,46.6140,29.460,34.1987,46.1942,46.4041,0.0322,,,, ,, , ,26.9115,,26.9089,,0.7213,83.5001,,,,1.0271E+03,,1.0000E-12,,5.6505,5.6563,0.9128,119.396,9.970,9.679,,,,,,,,,,,,
CalCOFI,2101RL,068,,2101_068u,01-Feb-2021 21:24:40,01-Feb-2021 13:24:40,34.05780,-122.93882,076.7 080.0,076.7,080.0,469.000,472.913,,5.7004,,5.7037,,5.7021,34.1322,,34.1380,34.1302,,34.1322,34.1351,0.7059,,0.7387,0.7643,0.6886,,0.7294,0.7591,0.7617,30.697,32.3938,46.8782,29.947,34.5880,46.5701,46.7242,0.0324,,,, ,, , ,26.9090,,26.9070,,0.7216,83.4932,,,,1.0271E+03,,1.0000E-12,,5.6606,5.6638,0.9128,119.630,10.087,9.841,,,,,,,,,,,,
CalCOFI,2101RL,068,,2101_068u,01-Feb-2021 21:24:40,01-Feb-2021 13:24:40,34.05780,-122.93882,076.7 080.0,076.7,080.0,468.000,471.903,,5.7069,,5.7129,,5.7099,34.1310,,34.1368,34.1283,,34.1303,34.1336,0.7099,,0.7429,0.7684,0.6980,,0.7393,0.7691,0.7688,30.873,32.5781,47.0110,30.355,34.7837,46.8851,46.9481,0.0333,,,, ,, , ,26.9073,,26.9045,,0.7219,83.4863,,,,1.0286E+03,,1.0000E-12,,5.6671,5.6730,0.9128,119.787,10.146,9.977,,,,,,,,,,,,
CalCOFI,2101RL,068,,2101_068u,01-Feb-2021 21:24:41,01-Feb-2021 13:24:41,34.05780,-122.93882,076.7 080.0,076.7,080.0,467.000,470.894,,5.7147,,5.7230,,5.7189,34.1298,,34.1356,34.1274,,34.1294,34.1325,0.7132,,0.7463,0.7718,0.6991,,0.7405,0.7702,0.7710,31.018,32.7298,47.1205,30.402,34.9449,46.9214,47.0210,0.0323,,,, ,, , ,26.9054,,26.9025,,0.7216,83.4946,,,,1.0306E+03,,1.0000E-12,,5.6750,5.6832,0.9128,119.961,10.196,9.995,,,,,,,,,,,,
CalCOFI,2101RL,068,,2101_068u,01-Feb-2021 21:24:42,01-Feb-2021 13:24:42,34.05780,-122.93881,076.7 080.0,076.7,080.0,466.000,469.884,,5.7216,,5.7334,,5.7275,34.1289,,34.1347,34.1260,,34.1280,34.1314,0.7193,,0.7527,0.7782,0.7000,,0.7415,0.7712,0.7747,31.280,33.0041,47.3182,30.443,35.2363,46.9530,47.1356,0.0326,,,, ,, , ,26.9038,,26.9001,,0.7217,83.4907,,,,1.0293E+03,,1.0000E-12,,5.6820,5.6937,0.9128,120.105,10.283,10.011,,,,,,,,,,,,
CalCOFI,2101RL,068,,2101_068u,01-Feb-2021 21:24:43,01-Feb-2021 13:24:43,34.05780,-122.93880,076.7 080.0,076.7,080.0,465.000,468.875,,5.7334,,5.7348,,5.7341,34.1274,,34.1332,34.1254,,34.1274,34.1303,0.7206,,0.7541,0.7795,0.7086,,0.7506,0.7803,0.7799,31.339,33.0659,47.3628,30.815,35.3019,47.2402,47.3015,0.0330,,,, ,, , ,26.9012,,26.8994,,0.7213,83.4999,,,,1.0287E+03,,1.0000E-12,,5.6938,5.6951,0.9128,120.352,10.305,10.133,,,,,,,,,,,,